[[{"header":{"parameterUnit":"m.s-1","parameterCategory":1,"la1":30.2991,"la2":30.254,"lo1":-89.0895,"lo2":-89.0444,"dy":0.0017,"dx":0.0017,"nx":28,"ny":28,"refTime":"2023-11-06T09:00:00:Z","depth":0,"parameterNumber":2,"parameterNumberName":"U-component_of_WINDS"},"data":[0,0,0,0,0,0,0,0,0,0,0,0,0,0,0,0,0,0,0,0,0,0,0,0,0,0,0,0,0,0,0,0,0,0,0,0,0,0,0,0,0,0,0,0,0,0,0,0,0,0,0,0,0,0,0,0,0,0,0.8923,0.8924,0,0.8975,0.8975,0.8976,0.8985,0.8985,0.8984,0.8984,0.904,0.9042,0.9044,0,0,0,0,0,0,0,0,0,0,0,0,0,0.8837,0.8838,0.8923,0.8924,0.8924,0.8974,0.8975,0.8976,0.8985,0.8985,0.8984,0.8984,0.9039,0.9041,0.9044,0,0,0,0,0,0,0,0,0,0,0,0,0,0.888,0.8839,0.8923,0.8935,0.8937,0.8974,0.8975,0.8976,0.8985,0.8985,0.8984,0.8983,0.9038,0.9041,0.9044,0.9074,0,0,0.9053,0.9054,0,0,0,0,0,0,0,0,0.8878,0.8883,0.8933,0.8934,0.8936,0.8973,0.8965,0.9009,0.8985,0.8967,0.8984,0.8983,0.9018,0.9023,0.9034,0.9077,0.9079,0.9053,0.9055,0.9056,0.9057,0,0,0,0,0,0,0,0.8875,0.8881,0.8944,0.8933,0.8936,0.8939,0.8944,0.8974,0.8996,0.8968,0.8969,0.8975,0.9019,0.9031,0.9035,0.908,0.9053,0.9055,0.9057,0.9058,0.9152,0.9153,0,0,0,0,0,0,0.8869,0.8878,0.8942,0.8945,0.8905,0.8941,0.8947,0.8962,0.8995,0.9,0.8976,0.8975,0.9027,0.9032,0.9037,0.9075,0.9056,0.9059,0.906,0.9151,0.9152,0.9153,0,0,0,0,0,0,0.8867,0.8875,0.894,0.8912,0.8921,0.8943,0.896,0.8963,0.8975,0.9001,0.9005,0.8983,0.9026,0.9033,0.9065,0.9077,0.906,0.9062,0.915,0.9151,0.9152,0.9152,0,0,0,0,0,0,0.8865,0.8874,0.8885,0.8912,0.8922,0.8966,0.896,0.8964,0.8979,0.898,0.9009,0.9014,0.9026,0.9061,0.9068,0.9081,0.9065,0.9149,0.9151,0.9152,0.9151,0.9153,0.9154,0,0,0,0,0,0.8861,0.8883,0.8885,0.8893,0.8936,0.8966,0.8972,0.8985,0.898,0.8992,0.9009,0.9013,0.9075,0.9064,0.9072,0.9086,0.9148,0.915,0.9152,0.915,0.9152,0.9154,0,0,0,0,0,0,0.8857,0.8887,0.8889,0.892,0.8941,0.8968,0.8983,0.8987,0.901,0.901,0.9026,0.9033,0.9064,0.9078,0.9066,0.9118,0.9112,0.9115,0.9107,0.911,0.9111,0.9107,0.9067,0,0,0,0,0,0.8859,0.8881,0.8906,0.8931,0.8941,0.896,0.8974,0.8982,0.9004,0.9013,0.9032,0.9055,0.9079,0.9095,0.9119,0.9153,0.916,0.9167,0.9168,0.917,0.9173,0.9192,0.9196,0.9159,0.9159,0.9159,0,0,0.8865,0.8884,0.8896,0.893,0.8947,0.897,0.8967,0.8991,0.9008,0.9017,0.9048,0.9063,0.9089,0.9122,0.9137,0.9135,0.9184,0.9172,0.9173,0.9175,0.9194,0.9198,0.9201,0.916,0.916,0.9159,0,0,0.8887,0.8903,0.8925,0.8942,0.8967,0.898,0.8986,0.9012,0.9022,0.9053,0.906,0.9082,0.9124,0.9142,0.9157,0.9187,0.9192,0.9194,0.9204,0.9223,0.9226,0.9228,0.9239,0.9243,0.9197,0.9197,0.9197,0,0.8891,0.8924,0.8937,0.896,0.8976,0.8984,0.9008,0.9024,0.9056,0.9067,0.9063,0.9116,0.9134,0.9172,0.9179,0.9191,0.9198,0.9191,0.9224,0.9227,0.9229,0.924,0.9244,0.9197,0.9197,0.9197,0.9197,0,0.8928,0.8951,0.8967,0.8996,0.9013,0.9037,0.9054,0.907,0.9078,0.9091,0.9123,0.9145,0.9174,0.9184,0.9191,0.9223,0.922,0.922,0.9214,0.9233,0.9243,0.9247,0.9198,0.9198,0.9197,0.9197,0,0,0.8948,0.8985,0.899,0.9004,0.9033,0.9051,0.9076,0.9103,0.9117,0.9139,0.9161,0.9196,0.9196,0.9213,0.9223,0.924,0.9262,0.9238,0.9238,0.9242,0.9298,0.9298,0.9303,0.9265,0.9266,0.9267,0.9296,0,0.8973,0.9016,0.9028,0.9065,0.9087,0.9096,0.9117,0.9138,0.9151,0.9173,0.9189,0.9213,0.9211,0.9222,0.9238,0.9256,0.9274,0.9254,0.9286,0.9287,0.9279,0.9308,0.9308,0.9335,0.93,0.9301,0.9302,0,0.9008,0.903,0.9068,0.9095,0.9105,0.9123,0.915,0.917,0.9194,0.9203,0.9222,0.9231,0.9258,0.925,0.9288,0.9275,0.9289,0.93,0.9301,0.9305,0.9295,0.9313,0.9343,0.9347,0.9308,0.9307,0.9307,0,0.9019,0.9058,0.9086,0.9098,0.913,0.9143,0.9157,0.918,0.9196,0.9219,0.923,0.9257,0.9272,0.9293,0.9309,0.9302,0.9346,0.9339,0.9354,0.9354,0.9363,0.9362,0.9397,0.9372,0.9372,0.9372,0.9372,0,0.9046,0.9069,0.9092,0.9109,0.9136,0.9151,0.9177,0.9192,0.9212,0.9234,0.9243,0.9263,0.9283,0.9306,0.9319,0.9349,0.9355,0.9364,0.9367,0.9363,0.9362,0.9373,0.9371,0.9373,0.9373,0.9373,0.9373,0,0.9062,0.9078,0.9109,0.9137,0.9144,0.9163,0.9187,0.9204,0.9218,0.9245,0.9252,0.9275,0.9302,0.932,0.9356,0.9364,0.9397,0.94,0.9389,0.939,0.9404,0.9403,0.9447,0.9453,0.9424,0.9424,0.9425,0,0.9078,0.9096,0.9125,0.9139,0.9153,0.9176,0.9193,0.9209,0.9225,0.9254,0.9269,0.9297,0.932,0.9363,0.9383,0.9411,0.9414,0.9428,0.9418,0.9414,0.9415,0.9413,0.9415,0.9429,0.943,0.943,0.943,0,0.9104,0.9112,0.9134,0.916,0.9178,0.9199,0.922,0.9232,0.9252,0.927,0.9298,0.9316,0.9351,0.9379,0.9408,0.9424,0.9431,0.9433,0.9438,0.9434,0.9426,0.9431,0.9393,0.9432,0.9431,0.9431,0.9431,0.9431,0.9121,0.9138,0.9161,0.9186,0.9203,0.9223,0.9241,0.9257,0.928,0.931,0.9319,0.9348,0.9372,0.9412,0.9428,0.9452,0.945,0.9457,0.9459,0.9461,0.9461,0.9423,0.9457,0.9457,0.9457,0.9457,0.9457,0,0.9149,0.9164,0.9187,0.9216,0.9236,0.9239,0.9263,0.928,0.9305,0.9327,0.9349,0.9381,0.9409,0.9431,0.9459,0.9474,0.9478,0.9481,0.948,0.9483,0.9461,0.9453,0.9477,0.9477,0.9477,0.9477,0.9477,0.9477,0.9165,0.9193,0.9204,0.9241,0.9257,0.9285,0.9298,0.9317,0.9334,0.9369,0.9392,0.9406,0.9428,0.9458,0.9484,0.949,0.95,0.9502,0.9509,0.9487,0.9485,0.9483,0.9476,0.9505,0.9505,0.953,0.953,0.9531]},{"header":{"parameterUnit":"m.s-1","parameterCategory":1,"la1":30.2991,"la2":30.254,"lo1":-89.0895,"lo2":-89.0444,"dy":0.0017,"dx":0.0017,"nx":28,"ny":28,"refTime":"2023-11-06T09:00:00:Z","depth":0,"parameterNumber":3,"parameterNumberName":"V-component_of_WINDS"},"data":[0,0,0,0,0,0,0,0,0,0,0,0,0,0,0,0,0,0,0,0,0,0,0,0,0,0,0,0,0,0,0,0,0,0,0,0,0,0,0,0,0,0,0,0,0,0,0,0,0,0,0,0,0,0,0,0,0,0,2.6063,2.6063,0,2.607,2.607,2.6071,2.6116,2.6117,2.6118,2.6119,2.6122,2.6121,2.612,0,0,0,0,0,0,0,0,0,0,0,0,0,2.6085,2.6084,2.6063,2.6063,2.6063,2.607,2.607,2.6071,2.6116,2.6117,2.6119,2.612,2.6122,2.6121,2.612,0,0,0,0,0,0,0,0,0,0,0,0,0,2.6082,2.6084,2.6063,2.6087,2.6089,2.607,2.607,2.6071,2.6116,2.6117,2.6119,2.6121,2.6123,2.6121,2.612,2.6077,0,0,2.6115,2.6115,0,0,0,0,0,0,0,0,2.6082,2.6081,2.6083,2.6085,2.6088,2.6094,2.6079,2.6073,2.6115,2.6105,2.6119,2.6121,2.6111,2.6111,2.6108,2.6077,2.6077,2.6115,2.6114,2.6114,2.6113,0,0,0,0,0,0,0,2.6082,2.6081,2.6066,2.6083,2.6086,2.6096,2.6098,2.6078,2.6099,2.6106,2.611,2.611,2.6113,2.6109,2.6109,2.6077,2.6115,2.6114,2.6113,2.6112,2.6012,2.601,0,0,0,0,0,0,2.608,2.6081,2.6066,2.6066,2.6089,2.6094,2.6096,2.609,2.6099,2.6102,2.6109,2.6112,2.6111,2.611,2.6109,2.6059,2.6114,2.6112,2.6111,2.6014,2.6011,2.601,0,0,0,0,0,0,2.608,2.6078,2.6065,2.6075,2.6074,2.6092,2.6086,2.609,2.6087,2.6101,2.6104,2.6102,2.6112,2.6111,2.6085,2.606,2.6112,2.611,2.6016,2.6013,2.601,2.596,0,0,0,0,0,0,2.608,2.6078,2.6063,2.6074,2.6073,2.6042,2.6084,2.6089,2.6085,2.6089,2.6095,2.6098,2.6114,2.6087,2.6084,2.6059,2.6109,2.6018,2.6015,2.6011,2.5964,2.5956,2.5949,0,0,0,0,0,2.6081,2.6047,2.6062,2.6059,2.6055,2.6041,2.604,2.606,2.6082,2.6067,2.6076,2.6098,2.6064,2.6084,2.608,2.6055,2.602,2.6016,2.6012,2.5967,2.5957,2.5949,0,0,0,0,0,0,2.603,2.6049,2.6065,2.6034,2.6036,2.6049,2.6029,2.6049,2.6043,2.6048,2.6072,2.6073,2.6043,2.6047,2.6069,2.6014,2.6045,2.604,2.6013,2.6003,2.5996,2.5995,2.6108,0,0,0,0,0,2.6016,2.6004,2.6021,2.5992,2.5992,2.601,2.6005,2.6021,2.6023,2.6023,2.6031,2.603,2.602,2.6012,2.6003,2.5965,2.5966,2.5946,2.5938,2.5932,2.5927,2.5907,2.5898,2.5996,2.5996,2.5996,0,0,2.5985,2.5994,2.5985,2.5982,2.5985,2.5971,2.6011,2.5994,2.5984,2.602,2.5997,2.6002,2.6004,2.5971,2.5958,2.5973,2.59,2.5927,2.5922,2.592,2.5902,2.5892,2.5884,2.5994,2.5994,2.5994,0,0,2.5922,2.5928,2.5904,2.5907,2.5912,2.5925,2.5919,2.5929,2.5935,2.5912,2.5939,2.5927,2.5908,2.5908,2.5905,2.5843,2.5863,2.584,2.58,2.578,2.5772,2.5765,2.5743,2.5734,2.5835,2.5835,2.5835,0,2.5882,2.5864,2.5889,2.5871,2.5869,2.5903,2.5879,2.588,2.5881,2.5877,2.5896,2.5874,2.5877,2.5845,2.583,2.5827,2.5821,2.5838,2.5772,2.5765,2.5759,2.5738,2.5729,2.5832,2.5832,2.5833,2.5833,0,2.5815,2.5802,2.5782,2.5784,2.578,2.5759,2.5779,2.5771,2.5787,2.5798,2.5774,2.578,2.5772,2.5766,2.5781,2.5737,2.5746,2.5768,2.5799,2.5746,2.5726,2.5718,2.5828,2.5829,2.583,2.583,0,0,2.5718,2.5736,2.5728,2.5729,2.5738,2.5728,2.5708,2.5703,2.5695,2.5695,2.5679,2.5663,2.5683,2.568,2.5695,2.5678,2.5628,2.5702,2.5702,2.5687,2.5579,2.5562,2.5552,2.5642,2.5641,2.5639,2.5578,0,2.5657,2.5626,2.5648,2.5612,2.56,2.5633,2.5616,2.5619,2.5628,2.5619,2.5629,2.5617,2.5645,2.5644,2.5628,2.5637,2.5606,2.5642,2.5625,2.5624,2.5623,2.5541,2.5523,2.5465,2.5571,2.5569,2.5568,0,2.5581,2.5579,2.5543,2.5555,2.5551,2.5535,2.5532,2.5523,2.5527,2.5535,2.5532,2.5552,2.5533,2.5565,2.5538,2.5562,2.5557,2.556,2.5559,2.5557,2.5592,2.5536,2.5447,2.5438,2.5557,2.5558,2.5558,0,2.5513,2.5502,2.5479,2.5479,2.5492,2.548,2.5485,2.5491,2.5486,2.5483,2.5481,2.5475,2.5471,2.5466,2.5484,2.5506,2.5454,2.5488,2.5459,2.5458,2.5445,2.5445,2.5353,2.5443,2.5444,2.5444,2.5444,0,2.5442,2.5418,2.5448,2.5434,2.5408,2.5434,2.5407,2.5415,2.542,2.5407,2.5435,2.5422,2.5446,2.5435,2.5449,2.5424,2.5422,2.5428,2.5431,2.5425,2.5424,2.542,2.5424,2.5441,2.5442,2.5442,2.5443,0,2.536,2.538,2.5357,2.5372,2.5376,2.5356,2.5368,2.5355,2.5367,2.535,2.5348,2.5366,2.5355,2.5373,2.5363,2.5372,2.5338,2.5348,2.5337,2.5339,2.5309,2.5311,2.521,2.5198,2.5297,2.5296,2.5295,0,2.5313,2.5296,2.531,2.5304,2.5307,2.5297,2.5294,2.5318,2.5313,2.5316,2.5302,2.5294,2.5288,2.5268,2.528,2.5273,2.5282,2.5247,2.5281,2.5275,2.5281,2.5281,2.5279,2.524,2.5239,2.5238,2.5237,0,2.5226,2.5237,2.5231,2.5229,2.5224,2.5223,2.5224,2.5217,2.5243,2.5235,2.5225,2.5221,2.5212,2.5203,2.5199,2.5202,2.5223,2.5227,2.5219,2.5212,2.5206,2.5208,2.5317,2.5228,2.5229,2.523,2.523,2.5231,2.516,2.5146,2.5154,2.5147,2.515,2.5151,2.5139,2.5151,2.5143,2.5139,2.5154,2.514,2.5145,2.5142,2.5143,2.5132,2.5147,2.5137,2.5134,2.5131,2.5126,2.5208,2.5131,2.5132,2.5132,2.5132,2.5132,0,2.5074,2.5081,2.5074,2.5075,2.5069,2.5092,2.5095,2.5088,2.5076,2.5079,2.5074,2.5062,2.5053,2.5065,2.5058,2.5047,2.5057,2.5044,2.5045,2.5045,2.5113,2.5119,2.5037,2.5037,2.5037,2.5037,2.5037,2.5037,2.5028,2.5006,2.5018,2.4998,2.5006,2.4994,2.4993,2.4993,2.4996,2.4982,2.4976,2.4985,2.4991,2.4985,2.4978,2.4982,2.4978,2.4962,2.4969,2.5031,2.504,2.5049,2.5056,2.4961,2.4961,2.4902,2.4902,2.4901]}]]